Total_Precipitation_Accumulation
0.05 0.08 0.15 0.23 0.22 0.16 0.12 0.10 0.13 0.17 0.31 0.52 0.73 0.86 0.96 1.01 1.05 0.95 0.91 0.94 0.99 1.11 1.25 1.35 1.46 1.44 1.43 1.52 1.60 1.81 2.19 2.41 2.59 2.65 2.67 2.78 2.81 2.77 2.82 2.77 2.67 2.86 2.91 2.88
0.06 0.08 0.10 0.14 0.18 0.15 0.12 0.12 0.15 0.19 0.35 0.51 0.77 0.84 0.93 0.94 0.98 0.97 1.04 1.13 1.25 1.31 1.40 1.44 1.53 1.64 1.70 1.74 1.85 2.07 2.52 2.88 3.02 3.07 3.09 3.11 3.12 3.10 3.11 3.06 3.18 3.21 3.05 2.98
0.08 0.10 0.14 0.19 0.18 0.17 0.16 0.16 0.21 0.28 0.41 0.55 0.73 0.94 1.04 0.94 0.84 0.90 1.03 1.13 1.22 1.36 1.49 1.57 1.68 1.77 1.91 2.02 2.13 2.30 2.58 2.81 2.91 3.00 3.09 3.24 3.24 3.21 3.17 3.17 3.21 3.22 3.28 3.24
0.16 0.18 0.27 0.26 0.26 0.28 0.27 0.28 0.32 0.45 0.60 0.69 0.76 0.89 0.94 0.85 0.86 0.94 1.03 1.15 1.26 1.34 1.57 1.73 1.91 2.14 2.42 2.59 2.72 2.72 2.80 2.96 3.05 3.03 3.06 3.12 3.10 2.98 2.98 3.12 3.14 3.09 3.05 3.00
0.29 0.30 0.31 0.33 0.38 0.39 0.42 0.54 0.59 0.72 0.86 0.98 0.99 0.98 1.11 1.03 1.00 1.08 1.22 1.37 1.58 1.78 1.90 2.00 2.08 2.22 2.46 2.76 2.94 2.96 2.85 2.94 3.08 3.17 3.27 3.18 3.09 3.08 3.10 3.16 3.07 3.02 2.99 3.02
0.42 0.48 0.52 0.49 0.51 0.49 0.56 0.99 0.91 0.98 1.12 1.24 1.36 1.68 1.69 1.40 1.44 1.40 1.37 1.52 1.70 1.89 2.01 2.01 2.12 2.20 2.32 2.52 2.66 2.74 2.79 2.91 3.04 3.15 3.33 3.44 3.39 3.41 3.36 3.29 3.22 3.21 3.16 3.16
0.53 0.61 0.64 0.57 0.53 0.62 1.12 1.57 1.33 1.28 1.35 1.47 1.65 1.74 1.67 1.52 1.59 1.61 1.45 1.45 1.49 1.55 1.71 1.79 1.86 1.99 2.19 2.30 2.29 2.39 2.50 2.56 2.74 2.99 3.23 3.39 3.49 3.50 3.51 3.44 3.34 3.14 2.98 2.95
0.80 1.01 1.13 0.76 0.68 1.07 1.48 1.46 1.59 1.51 1.53 1.63 1.69 1.73 1.75 1.75 1.73 1.63 1.53 1.41 1.41 1.50 1.61 1.70 1.86 2.16 2.39 2.38 2.34 2.37 2.48 2.62 2.77 2.99 3.09 3.15 3.28 3.33 3.49 3.46 3.36 3.25 3.02 2.82
1.26 1.42 1.27 0.95 1.02 1.15 1.20 1.43 1.53 1.58 1.64 1.69 1.66 1.63 1.56 1.53 1.57 1.63 1.53 1.50 1.44 1.46 1.59 1.81 2.07 2.35 2.60 2.59 2.62 2.67 2.72 2.82 2.91 3.00 3.11 3.20 3.27 3.28 3.30 3.29 3.14 3.03 2.87 2.75
1.57 1.75 1.52 1.28 1.21 1.27 1.34 1.50 1.64 1.75 1.87 1.84 1.71 1.57 1.58 1.58 1.56 1.62 1.60 1.54 1.50 1.51 1.62 1.82 1.96 2.09 2.34 2.50 2.56 2.73 2.75 2.69 2.70 2.72 2.79 2.89 3.01 3.05 3.01 2.94 2.89 2.79 2.68 2.61
1.96 2.16 1.98 1.74 1.54 1.51 1.56 1.82 2.02 2.00 1.94 1.83 1.80 1.76 1.83 1.81 1.69 1.61 1.58 1.62 1.61 1.65 1.75 1.81 1.83 1.89 2.02 2.22 2.39 2.60 2.74 2.76 2.79 2.80 2.85 2.92 2.99 3.07 2.97 2.81 2.77 2.67 2.54 2.58
2.32 2.22 2.29 2.15 1.77 1.72 1.77 1.97 2.10 2.04 2.01 2.02 2.01 1.93 1.79 1.72 1.66 1.63 1.63 1.68 1.76 1.84 1.87 1.87 1.86 1.95 2.07 2.26 2.51 2.78 2.78 2.70 2.74 2.82 2.92 3.01 3.06 3.09 3.14 2.85 2.76 2.61 2.52 2.47
1.94 2.01 2.08 1.99 1.89 1.94 2.02 2.10 2.17 2.13 2.03 2.07 2.10 1.99 1.80 1.66 1.61 1.61 1.68 1.70 1.81 1.91 1.88 1.84 1.81 1.97 2.16 2.35 2.57 2.80 2.82 2.81 2.82 2.79 2.84 2.91 2.88 2.80 2.82 2.75 2.57 2.49 2.39 2.28
2.01 2.11 2.25 2.24 2.21 2.16 2.33 2.41 2.39 2.31 2.24 2.17 2.11 1.97 1.83 1.86 1.85 1.78 1.80 1.85 1.81 1.76 1.71 1.77 1.81 1.82 1.96 2.16 2.47 2.74 2.79 2.86 2.89 2.87 2.78 2.77 2.70 2.63 2.57 2.54 2.41 2.25 2.17 2.13
2.11 2.09 2.23 2.18 2.22 2.25 2.39 2.55 2.60 2.57 2.47 2.29 2.11 1.96 1.77 1.81 2.02 2.05 2.05 2.10 1.96 1.81 1.76 1.76 1.73 1.67 1.71 1.84 2.04 2.38 2.55 2.50 2.46 2.48 2.46 2.46 2.39 2.30 2.22 2.16 2.20 2.22 2.12 2.03
1.99 2.06 2.06 2.14 2.16 2.13 2.17 2.30 2.44 2.46 2.39 2.24 2.06 1.96 1.80 1.78 1.84 1.90 2.02 2.07 2.11 2.00 1.85 1.75 1.77 1.74 1.64 1.75 1.89 1.98 2.08 2.21 2.11 2.00 2.01 2.05 2.06 2.07 2.03 2.03 2.11 2.23 2.19 1.98
2.05 2.16 2.12 2.15 2.14 2.07 1.97 2.04 2.17 2.20 2.18 2.13 1.99 1.83 1.72 1.72 1.85 1.92 1.97 1.90 1.81 1.79 1.70 1.63 1.63 1.64 1.60 1.73 1.81 1.75 1.68 1.71 1.76 1.61 1.65 1.80 1.89 1.93 1.95 2.03 2.09 2.10 2.01 1.86
1.85 1.91 1.98 2.01 1.93 1.95 1.95 1.96 2.01 1.93 1.98 1.93 1.80 1.71 1.70 1.86 2.04 2.07 1.92 1.75 1.68 1.67 1.61 1.50 1.37 1.29 1.33 1.40 1.42 1.39 1.31 1.30 1.33 1.34 1.46 1.58 1.63 1.69 1.79 1.87 1.92 1.92 1.81 1.66
1.74 1.64 1.64 1.66 1.56 1.67 1.82 1.82 1.89 1.87 1.90 1.83 1.75 1.78 1.81 1.88 1.95 1.92 1.74 1.70 1.70 1.65 1.53 1.41 1.39 1.16 1.12 1.13 1.19 1.17 1.19 1.25 1.30 1.32 1.41 1.46 1.46 1.50 1.67 1.77 1.80 1.80 1.71 1.63
1.64 1.51 1.46 1.49 1.43 1.46 1.58 1.58 1.57 1.61 1.63 1.67 1.82 1.87 1.78 1.75 1.69 1.66 1.63 1.64 1.59 1.47 1.36 1.29 1.21 1.19 1.20 1.19 1.22 1.17 1.19 1.22 1.26 1.22 1.23 1.28 1.34 1.40 1.46 1.51 1.55 1.58 1.57 1.51
1.43 1.35 1.34 1.43 1.48 1.40 1.42 1.40 1.42 1.43 1.47 1.55 1.73 1.79 1.72 1.66 1.59 1.65 1.78 1.74 1.54 1.33 1.27 1.32 1.21 1.18 1.16 1.21 1.18 1.11 1.15 1.21 1.24 1.33 1.37 1.39 1.40 1.41 1.43 1.39 1.39 1.42 1.45 1.50
1.50 1.36 1.27 1.27 1.37 1.40 1.31 1.25 1.23 1.23 1.28 1.37 1.38 1.48 1.65 1.76 1.68 1.69 1.73 1.73 1.57 1.55 1.31 1.21 1.17 1.20 1.23 1.20 1.15 1.23 1.28 1.36 1.44 1.51 1.55 1.57 1.60 1.60 1.54 1.49 1.49 1.45 1.49 1.54
1.61 1.51 1.45 1.42 1.44 1.50 1.35 1.24 1.17 1.19 1.26 1.29 1.27 1.36 1.54 1.69 1.70 1.71 1.63 1.47 1.35 1.48 1.34 1.24 1.29 1.28 1.25 1.18 1.27 1.40 1.40 1.43 1.49 1.53 1.58 1.62 1.69 1.69 1.67 1.64 1.68 1.65 1.66 1.72
1.71 1.54 1.47 1.40 1.35 1.40 1.41 1.30 1.20 1.17 1.17 1.20 1.22 1.30 1.46 1.54 1.54 1.44 1.36 1.33 1.26 1.26 1.19 1.28 1.33 1.30 1.25 1.20 1.34 1.42 1.43 1.48 1.52 1.53 1.54 1.59 1.62 1.61 1.67 1.72 1.72 1.70 1.71 1.72
1.81 1.64 1.52 1.42 1.41 1.36 1.35 1.30 1.22 1.11 1.05 1.08 1.05 1.11 1.20 1.34 1.45 1.37 1.28 1.20 1.17 1.14 1.15 1.26 1.30 1.35 1.28 1.28 1.32 1.36 1.42 1.56 1.64 1.59 1.55 1.60 1.61 1.63 1.67 1.68 1.62 1.58 1.61 1.66
1.89 1.79 1.69 1.54 1.38 1.29 1.27 1.28 1.28 1.23 1.17 1.12 1.08 1.11 1.17 1.21 1.24 1.30 1.34 1.27 1.20 1.20 1.20 1.23 1.24 1.27 1.25 1.30 1.38 1.40 1.41 1.52 1.59 1.58 1.56 1.57 1.60 1.62 1.57 1.53 1.48 1.47 1.50 1.51
1.80 1.75 1.71 1.61 1.47 1.32 1.28 1.30 1.33 1.32 1.30 1.32 1.29 1.27 1.33 1.32 1.30 1.32 1.26 1.20 1.15 1.15 1.20 1.22 1.21 1.19 1.15 1.12 1.14 1.19 1.23 1.26 1.31 1.40 1.49 1.50 1.47 1.44 1.39 1.37 1.36 1.34 1.34 1.31